This is the latest recevied weather packets stored in our database for station/object K4AGR-13. If no packets are shown the sender has not sent any weather packets the latest 10 day(s).
| Time | Temp. | Humidity | Pressure | Rain* | Wind** | Luminosity | Snow |
|---|---|---|---|---|---|---|---|
| 1777466521 | 19.44° C | 94% | 1017.3 hPa | 0 mm | - | 229 W/m² | - |
| 1777466216 | 18.89° C | 94% | 1017.5 hPa | 0 mm | - | 101 W/m² | - |
| 1777465913 | 18.89° C | 94% | 1016.8 hPa | 0 mm | - | 67 W/m² | - |
| 1777465609 | 18.89° C | 94% | 1016.6 hPa | 0 mm | - | 42 W/m² | - |
| 1777465304 | 18.89° C | 94% | 1017 hPa | 0 mm | - | 22 W/m² | - |
| 1777464999 | 18.89° C | 95% | 1017.4 hPa | 0 mm | - | 32 W/m² | - |
| 1777464694 | 18.89° C | 95% | 1017.3 hPa | 0 mm | - | 50 W/m² | - |
| 1777464391 | 18.89° C | 95% | 1017.3 hPa | 0 mm | - | 55 W/m² | - |
| 1777464087 | 18.89° C | 95% | 1017.4 hPa | 0 mm | - | 65 W/m² | - |
| 1777463786 | 18.89° C | 95% | 1017.3 hPa | 0 mm | - | 64 W/m² | - |
| 1777463481 | 18.89° C | 95% | 1017.4 hPa | 0 mm | - | 55 W/m² | - |
| 1777463177 | 18.89° C | 95% | 1017.2 hPa | 0 mm | - | 44 W/m² | - |
| 1777462873 | 18.89° C | 95% | 1017.2 hPa | 0 mm | - | 35 W/m² | - |
| 1777462570 | 18.89° C | 95% | 1016.9 hPa | 0 mm | - | 32 W/m² | - |
| 1777462265 | 18.33° C | 95% | 1016.8 hPa | 0 mm | - | 26 W/m² | - |
| 1777461961 | 18.33° C | 95% | 1016.5 hPa | 0 mm | - | 20 W/m² | - |
| 1777461659 | 18.33° C | 95% | 1016.5 hPa | 0 mm | - | 14 W/m² | - |
| 1777461359 | 18.33° C | 95% | 1016.3 hPa | 0 mm | - | 10 W/m² | - |
| 1777461055 | 18.89° C | 94% | 1016.3 hPa | 0 mm | - | 6 W/m² | - |
| 1777460751 | 18.89° C | 94% | 1016.3 hPa | 0 mm | - | 4 W/m² | - |
| 1777460447 | 18.89° C | 94% | 1016 hPa | 0 mm | - | 2 W/m² | - |
| 1777460142 | 18.89° C | 94% | 1016.2 hPa | 0 mm | - | 1 W/m² | - |
| 1777459840 | 18.89° C | 94% | 1016.1 hPa | 0 mm | - | 1 W/m² | - |
| 1777459537 | 18.89° C | 94% | 1016.6 hPa | 0 mm | - | 0 W/m² | - |
| 1777459234 | 18.89° C | 94% | 1016.5 hPa | 0 mm | - | 0 W/m² | - |
* Rain latest hour (hover to see other rain measurements)
** Current wind speed in m/s (hover to see current wind gust speed)